When you browse on this site, cookies collect data to enhance your experience and personalize the content and advertising you see.
Visit our Privacy Policy to learn more. By continuing to use the site, you agree to this use of cookies and data.

Meteo pe oră la Nesebyr

Astăzi, 3 August, Luni

Timp Temperatura Precipitaţii Vânt Presiune Umiditate
00:00 +20°C° 0 mm 2 m/s 759 mmHg 89%
01:00 +20°C° 0 mm 2 m/s 759 mmHg 89%
02:00 +19°C° 0 mm 2 m/s 759 mmHg 89%
03:00 +19°C° 0 mm 2 m/s 759 mmHg 87%
04:00 +19°C° 0 mm 2 m/s 759 mmHg 86%
05:00 +19°C° 0 mm 1 m/s 759 mmHg 85%
06:00 +20°C° 0 mm 2 m/s 759 mmHg 73%
07:00 +24°C° 0 mm 3 m/s 759 mmHg 61%
08:00 +26°C° 0 mm 4 m/s 759 mmHg 48%
09:00 +27°C° 0 mm 4 m/s 759 mmHg 44%
10:00 +29°C° 0 mm 5 m/s 759 mmHg 40%
11:00 +30°C° 0 mm 6 m/s 758 mmHg 36%
12:00 +30°C° 0 mm 6 m/s 758 mmHg 36%
13:00 +30°C° 0 mm 6 m/s 758 mmHg 35%
14:00 +30°C° 0 mm 6 m/s 758 mmHg 35%
15:00 +29°C° 0 mm 6 m/s 757 mmHg 38%
16:00 +28°C° 0 mm 6 m/s 757 mmHg 42%
17:00 +28°C° 0 mm 5 m/s 757 mmHg 45%
18:00 +26°C° 0 mm 5 m/s 757 mmHg 56%
19:00 +23°C° 0 mm 4 m/s 757 mmHg 67%
20:00 +21°C° 0 mm 3 m/s 757 mmHg 78%
21:00 +20°C° 0 mm 3 m/s 757 mmHg 81%
22:00 +20°C° 0 mm 3 m/s 757 mmHg 84%
23:00 +19°C° 0 mm 2 m/s 758 mmHg 88%

Mâine, 4 August, Marţi

Timp Temperatura Precipitaţii Vânt Presiune Umiditate
00:00 +19°C° 0 mm 2 m/s 757 mmHg 88%
01:00 +19°C° 0 mm 2 m/s 757 mmHg 89%
02:00 +19°C° 0 mm 1 m/s 757 mmHg 89%
03:00 +19°C° 0 mm 1 m/s 757 mmHg 89%
04:00 +19°C° 0 mm 1 m/s 757 mmHg 90%
05:00 +19°C° 0 mm 1 m/s 756 mmHg 90%
06:00 +20°C° 0 mm 2 m/s 757 mmHg 81%
07:00 +23°C° 0 mm 2 m/s 757 mmHg 71%
08:00 +25°C° 0 mm 3 m/s 757 mmHg 62%
09:00 +27°C° 0 mm 3 m/s 757 mmHg 55%
10:00 +28°C° 0 mm 4 m/s 757 mmHg 49%
11:00 +30°C° 0 mm 5 m/s 757 mmHg 42%
12:00 +30°C° 0 mm 5 m/s 757 mmHg 42%
13:00 +32°C° 0 mm 5 m/s 756 mmHg 42%
14:00 +32°C° 0 mm 6 m/s 756 mmHg 42%
15:00 +30°C° 0 mm 6 m/s 756 mmHg 45%
16:00 +29°C° 0 mm 5 m/s 756 mmHg 49%
17:00 +28°C° 0 mm 5 m/s 756 mmHg 52%
18:00 +26°C° 0 mm 5 m/s 756 mmHg 62%
19:00 +23°C° 0 mm 4 m/s 756 mmHg 73%
20:00 +21°C° 0 mm 3 m/s 756 mmHg 83%
21:00 +21°C° 0 mm 3 m/s 756 mmHg 86%
22:00 +20°C° 0 mm 3 m/s 756 mmHg 89%
23:00 +20°C° 0 mm 2 m/s 757 mmHg 92%

Poimâine, 5 August, Miercuri

Timp Temperatura Precipitaţii Vânt Presiune Umiditate
00:00 +20°C° 0 mm 2 m/s 756 mmHg 92%
01:00 +19°C° 0 mm 2 m/s 756 mmHg 92%
02:00 +19°C° 0 mm 2 m/s 756 mmHg 92%
03:00 +19°C° 0 mm 2 m/s 756 mmHg 93%
04:00 +19°C° 0 mm 2 m/s 756 mmHg 93%
05:00 +19°C° 0 mm 2 m/s 756 mmHg 93%
06:00 +21°C° 0 mm 3 m/s 756 mmHg 83%
07:00 +23°C° 0 mm 4 m/s 756 mmHg 73%
08:00 +26°C° 0 mm 5 m/s 756 mmHg 63%
09:00 +28°C° 0 mm 5 m/s 756 mmHg 57%
10:00 +29°C° 0 mm 6 m/s 756 mmHg 52%
11:00 +30°C° 0 mm 6 m/s 756 mmHg 46%
12:00 +32°C° 0 mm 6 m/s 756 mmHg 45%
13:00 +32°C° 0 mm 7 m/s 756 mmHg 45%
14:00 +32°C° 0 mm 7 m/s 756 mmHg 44%
15:00 +32°C° 0 mm 7 m/s 755 mmHg 47%
16:00 +30°C° 0 mm 7 m/s 755 mmHg 49%
17:00 +29°C° 0 mm 7 m/s 755 mmHg 51%
18:00 +27°C° 0 mm 6 m/s 756 mmHg 60%
19:00 +26°C° 0 mm 5 m/s 756 mmHg 68%
20:00 +23°C° 0 mm 4 m/s 756 mmHg 76%
21:00 +22°C° 0 mm 4 m/s 756 mmHg 80%
22:00 +21°C° 0 mm 4 m/s 756 mmHg 83%
23:00 +21°C° 0 mm 3 m/s 756 mmHg 86%

6 August, Joi

Timp Temperatura Precipitaţii Vânt Presiune Umiditate
00:00 +20°C° 0 mm 3 m/s 756 mmHg 88%
01:00 +20°C° 0 mm 3 m/s 756 mmHg 89%
02:00 +20°C° 0 mm 3 m/s 756 mmHg 90%
03:00 +20°C° 0 mm 3 m/s 756 mmHg 90%
04:00 +20°C° 0 mm 3 m/s 756 mmHg 90%
05:00 +20°C° 0 mm 3 m/s 756 mmHg 90%
06:00 +22°C° 0 mm 4 m/s 756 mmHg 81%
07:00 +25°C° 0 mm 5 m/s 756 mmHg 72%
08:00 +27°C° 0 mm 6 m/s 757 mmHg 64%
09:00 +28°C° 0 mm 7 m/s 757 mmHg 58%
10:00 +29°C° 0 mm 7 m/s 757 mmHg 53%
11:00 +32°C° 0 mm 7 m/s 757 mmHg 47%
12:00 +32°C° 0 mm 7 m/s 756 mmHg 46%
13:00 +33°C° 0 mm 8 m/s 756 mmHg 45%
14:00 +33°C° 0 mm 8 m/s 756 mmHg 44%
15:00 +32°C° 0 mm 8 m/s 756 mmHg 47%
16:00 +31°C° 0 mm 8 m/s 756 mmHg 51%
17:00 +31°C° 0 mm 8 m/s 756 mmHg 54%
18:00 +28°C° 0 mm 7 m/s 757 mmHg 64%
19:00 +27°C° 0 mm 6 m/s 757 mmHg 73%
20:00 +25°C° 0 mm 5 m/s 757 mmHg 83%
21:00 +25°C° 0 mm 5 m/s 757 mmHg 84%
22:00 +23°C° 0 mm 5 m/s 757 mmHg 86%
23:00 +23°C° 0 mm 5 m/s 757 mmHg 88%

7 August, Vineri

Timp Temperatura Precipitaţii Vânt Presiune Umiditate
00:00 +23°C° 0 mm 5 m/s 757 mmHg 88%
01:00 +22°C° 0 mm 5 m/s 757 mmHg 88%
02:00 +22°C° 0 mm 4 m/s 756 mmHg 89%
03:00 +22°C° 0 mm 5 m/s 756 mmHg 89%
04:00 +22°C° 0 mm 5 m/s 756 mmHg 90%
05:00 +22°C° 0 mm 5 m/s 756 mmHg 90%
06:00 +24°C° 0 mm 6 m/s 756 mmHg 80%
07:00 +27°C° 0 mm 7 m/s 756 mmHg 70%
08:00 +29°C° 0 mm 8 m/s 756 mmHg 61%
09:00 +32°C° 0 mm 9 m/s 756 mmHg 54%
10:00 +33°C° 0 mm 9 m/s 756 mmHg 48%
11:00 +36°C° 0 mm 10 m/s 756 mmHg 41%
12:00 +36°C° 0 mm 10 m/s 756 mmHg 41%
13:00 +36°C° 0 mm 10 m/s 756 mmHg 41%
14:00 +36°C° 0 mm 11 m/s 755 mmHg 41%
15:00 +34°C° 0 mm 11 m/s 755 mmHg 46%
16:00 +33°C° 0 mm 10 m/s 755 mmHg 51%
17:00 +32°C° 0 mm 10 m/s 755 mmHg 55%
18:00 +29°C° 0 mm 9 m/s 755 mmHg 61%
19:00 +28°C° 0 mm 8 m/s 755 mmHg 67%
20:00 +27°C° 0 mm 7 m/s 756 mmHg 73%
21:00 +27°C° 0 mm 6 m/s 756 mmHg 74%
22:00 +26°C° 0 mm 6 m/s 756 mmHg 75%
23:00 +26°C° 0 mm 6 m/s 756 mmHg 76%

8 August, Sâmbătă

Timp Temperatura Precipitaţii Vânt Presiune Umiditate
00:00 +26°C° 0 mm 5 m/s 755 mmHg 75%
01:00 +26°C° 0 mm 5 m/s 755 mmHg 75%
02:00 +26°C° 0 mm 5 m/s 755 mmHg 74%
03:00 +24°C° 0 mm 6 m/s 755 mmHg 74%
04:00 +24°C° 0 mm 6 m/s 755 mmHg 74%
05:00 +24°C° 0 mm 6 m/s 755 mmHg 74%
06:00 +26°C° 0.1 mm 7 m/s 755 mmHg 68%
07:00 +28°C° 0.1 mm 8 m/s 755 mmHg 62%
08:00 +29°C° 0.1 mm 9 m/s 755 mmHg 56%
09:00 +31°C° 0.1 mm 9 m/s 755 mmHg 52%
10:00 +33°C° 0.1 mm 10 m/s 755 mmHg 47%
11:00 +34°C° 0.1 mm 10 m/s 755 mmHg 42%
12:00 +34°C° 0.1 mm 10 m/s 755 mmHg 42%
13:00 +34°C° 0.1 mm 10 m/s 755 mmHg 42%
14:00 +34°C° 0.1 mm 9 m/s 755 mmHg 43%
15:00 +33°C° 0.1 mm 9 m/s 754 mmHg 44%
16:00 +33°C° 0.1 mm 9 m/s 754 mmHg 46%
17:00 +32°C° 0.1 mm 8 m/s 754 mmHg 48%
18:00 +30°C° 0 mm 7 m/s 754 mmHg 54%
19:00 +28°C° 0 mm 6 m/s 754 mmHg 60%
20:00 +27°C° 0 mm 6 m/s 754 mmHg 66%
21:00 +26°C° 0 mm 5 m/s 755 mmHg 70%
22:00 +25°C° 0 mm 4 m/s 755 mmHg 74%
23:00 +24°C° 0 mm 3 m/s 755 mmHg 78%
Arată mai mult